Home   Weather   Slough   Past weeks

Flag for United Kingdom Past Weather in Slough, England, United Kingdom — Yesterday and Last 2 Weeks

Now
52 °F

Light rain. Overcast.


Feels Like: 49 °F
Forecast: 45 / 61 °F
Wind: 7 mph from Southeast

Location: London City Airport

Current Time: May 1, 2017 at 3:37:25 am

Latest Report: May 1, 2017 at 2:50 am


Visibility: N/A

Pressure: 29.53 "Hg

Humidity: 82%

Dew Point: 46 °F

Location of SloughLocation

Past Weather in Slough — Graph

°F

Slough Temperature Yesterday

Maximum temperature yesterday: 63 °F (at 1:50 pm)
Minimum temperature yesterday: 50 °F (at 4:50 am)
Average temperature yesterday: 56 °F

High & Low Weather Summary for the Past Weeks

 TemperatureHumidityPressure
High63 °F (Apr 30, 1:50 pm)94% (Apr 22, 9:50 am)30.66 "Hg (Apr 22, 9:50 am)
Low37 °F (Apr 27, 6:50 am)32% (Apr 25, 2:50 pm)29.47 "Hg (Apr 30, 6:20 pm)
Average51 °F63%30.18 "Hg
* Reported Apr 16 2:20 am — May 1 2:20 am, Slough, Weather by CustomWeather, © 2017

Note: Actual official high and low records may vary slightly from our data, if they occured in-between our weather recording intervals... More about our weather records

Advertising

Slough Weather History for the Previous 24 Hours

Scroll right to see more
 ConditionsComfort  
Time TempWeatherWind HumidityBarometerVisibility
2:20 am
Mon, May 1
52 °FCool.5 mph82%29.50 "HgN/A
1:20 am52 °FLight rain. Passing clouds.9 mph88%29.50 "HgN/A
12:50 am54 °FLight rain. Passing clouds.7 mph82%29.50 "Hg4 mi
12:20 am54 °FLight rain. Passing clouds.6 mph88%29.50 "HgN/A
11:50 pm
Sun, Apr 30
54 °FLight rain. Passing clouds.8 mph82%29.50 "HgN/A
11:20 pm55 °FLight rain. Passing clouds.9 mph77%29.50 "HgN/A
10:50 pm55 °FLight rain. Partly cloudy.12 mph77%29.50 "HgN/A
10:20 pm55 °FCool.8 mph72%29.50 "HgN/A
9:50 pm55 °FLight rain. Overcast.9 mph72%29.47 "HgN/A
9:20 pm57 °FCool.12 mph63%29.50 "HgN/A
8:50 pm57 °FLight rain. Overcast.12 mph63%29.50 "HgN/A
8:20 pm59 °FLight rain. Overcast.17 mph55%29.50 "HgN/A
7:50 pm61 °FRefreshingly cool.15 mph48%29.50 "HgN/A
7:20 pm61 °FRefreshingly cool.21 mph45%29.50 "HgN/A
6:50 pm63 °FMild.17 mph42%29.47 "HgN/A
6:20 pm63 °FMild.15 mph39%29.47 "HgN/A
5:50 pm63 °FMild.17 mph39%29.50 "HgN/A
5:20 pm61 °FRefreshingly cool.16 mph42%29.50 "HgN/A
4:50 pm63 °FMild.17 mph37%29.50 "HgN/A
4:20 pm63 °FMild.15 mph39%29.50 "HgN/A
3:50 pm63 °FMild.21 mph37%29.50 "HgN/A
3:20 pm63 °FMild.21 mph37%29.53 "HgN/A
2:50 pm63 °FMild.17 mph42%29.53 "HgN/A
2:20 pm63 °FMild.16 mph42%29.53 "HgN/A
1:50 pm63 °FMild.18 mph49%29.53 "HgN/A
1:20 pm61 °FRefreshingly cool.23 mph52%29.53 "HgN/A
12:50 pm59 °FRefreshingly cool.21 mph55%29.56 "HgN/A
12:20 pm57 °FRefreshingly cool.20 mph59%29.56 "HgN/A
11:50 am57 °FRefreshingly cool.21 mph59%29.56 "HgN/A
11:20 am57 °FRefreshingly cool.22 mph59%29.59 "HgN/A
10:50 am57 °FRefreshingly cool.17 mph59%29.59 "HgN/A
10:20 am57 °FRefreshingly cool.20 mph59%29.62 "HgN/A
9:50 am59 °FRefreshingly cool.20 mph51%29.62 "HgN/A
9:20 am57 °FRefreshingly cool.17 mph55%29.65 "HgN/A
8:50 am54 °FCool.16 mph63%29.65 "HgN/A
8:20 am54 °FCool.10 mph63%29.68 "HgN/A
7:50 am52 °FCool.12 mph67%29.68 "HgN/A
7:20 am52 °FCool.14 mph62%29.68 "HgN/A
6:50 am50 °FCool.13 mph71%29.71 "HgN/A
6:20 am50 °FCool.15 mph67%29.71 "HgN/A
5:50 am50 °FCool.15 mph67%29.71 "HgN/A
5:20 am50 °FCool.15 mph62%29.74 "HgN/A
4:50 am50 °FCool.15 mph62%29.74 "HgN/A
4:20 am52 °FCool.15 mph58%29.74 "HgN/A
3:50 am52 °FCool.15 mph58%29.77 "HgN/A
3:20 am52 °FCool.15 mph58%29.77 "HgN/A
Weather by CustomWeather, © 2017

See weather overviewHow to use our weather pages